Dewpoint
48 48 48 46 46 44 42 38 34 43 42 36 32 30 23 19 14 15 16 15 8 5 4 4 5 4 4 10 11 10 10 14 17 15 16 15 12 10 9 13 14 18 23 26
48 48 48 46 46 44 34 36 35 40 40 28 28 25 24 20 19 13 8 6 4 7 8 14 19 13 12 11 14 18 19 17 11 14 15 15 11 9 12 18 15 14 17 22
48 49 48 46 45 42 38 33 31 36 39 33 25 21 20 18 20 15 11 9 10 15 14 16 19 12 10 14 15 23 22 15 17 18 16 13 11 12 13 17 23 23 25 23
48 49 48 46 45 42 42 36 30 31 28 31 30 27 19 16 17 17 14 12 13 15 18 17 17 18 17 17 19 19 20 18 17 16 15 16 17 17 18 20 20 22 23 17
46 48 48 47 45 42 41 35 29 28 22 26 27 27 22 19 17 15 15 12 11 13 12 21 16 15 16 17 19 20 23 25 21 20 21 19 20 23 23 19 17 15 15 17
45 46 48 47 44 42 36 35 29 30 26 27 23 24 20 17 15 14 15 16 14 14 17 20 24 28 27 26 25 23 23 25 23 21 20 19 19 20 21 18 16 16 14 16
44 46 47 47 45 41 33 33 29 26 25 22 22 20 20 17 18 17 18 18 18 19 25 29 28 27 25 25 26 27 24 24 25 23 22 17 19 16 14 12 14 18 21 19
42 45 46 46 44 43 38 34 33 31 26 22 18 19 18 19 19 19 19 20 20 24 32 29 24 21 21 22 24 25 27 27 25 23 20 18 16 14 12 24 27 30 23 26
42 44 47 46 45 43 41 41 38 35 29 25 20 19 18 19 19 20 20 21 24 26 33 29 20 15 11 10 21 24 25 28 26 23 21 13 14 29 31 23 20 25 25 27
43 44 46 46 45 43 41 42 42 37 30 26 25 21 21 21 20 19 23 25 27 29 30 27 21 19 17 14 12 14 26 25 27 25 20 18 17 32 33 21 23 30 29 27
42 46 46 46 45 44 41 41 44 39 32 28 27 27 25 25 30 28 29 29 30 34 30 29 24 22 21 20 20 20 28 26 24 24 21 20 21 27 25 31 30 28 27 28
44 46 45 45 46 44 41 38 43 44 39 36 38 36 33 29 28 32 33 30 34 35 31 31 31 27 30 27 27 23 27 27 22 20 21 35 34 31 32 31 29 30 29 29
45 45 46 45 45 44 41 40 43 41 37 34 33 29 31 34 34 33 32 31 29 36 37 34 32 28 28 26 26 27 27 29 32 30 29 34 36 33 30 30 30 30 30 30
45 45 45 45 44 43 42 41 43 40 35 29 27 30 32 32 31 31 34 34 33 32 37 34 32 28 29 33 34 33 33 35 34 32 29 27 31 31 31 30 31 30 30 30
45 45 45 45 44 44 42 43 44 42 34 30 28 28 28 29 31 31 32 33 35 34 34 32 30 29 30 31 31 30 28 27 28 30 31 30 32 32 32 32 31 29 29 29
45 45 44 43 42 42 40 36 40 42 41 34 25 26 26 27 30 31 33 35 36 36 35 33 34 33 33 31 26 26 29 27 34 33 34 34 33 33 32 32 31 30 29 29
44 43 42 42 42 41 35 35 39 42 41 33 29 22 25 26 28 32 33 36 38 36 35 33 34 33 34 33 28 28 28 30 32 33 32 30 29 29 30 30 29 29 28 28
42 42 42 43 41 39 37 41 42 42 38 36 27 23 28 35 33 32 39 36 37 35 32 33 34 33 35 30 32 30 29 29 31 31 30 30 29 29 29 29 29 27 27 28
43 43 42 40 38 36 38 43 42 42 37 30 28 23 22 37 35 34 33 35 29 35 31 32 35 32 29 33 30 28 28 29 31 30 28 28 28 27 28 27 27 27 28 28
42 39 34 31 36 43 43 40 34 35 34 34 30 28 25 34 33 31 31 32 31 27 31 35 33 28 31 29 29 28 31 32 31 29 29 28 27 27 27 26 27 28 28 28
39 35 34 40 43 39 36 30 29 30 28 32 30 25 27 35 31 32 35 32 33 29 31 31 27 24 27 28 28 27 33 31 31 30 29 29 28 28 27 28 28 29 29 28
37 37 39 38 35 32 28 27 28 28 21 29 28 27 26 34 35 33 33 31 29 22 29 25 22 28 28 28 28 33 31 30 29 28 27 27 28 29 29 29 29 30 30 28
38 35 32 31 30 25 24 22 23 25 28 32 33 33 34 35 36 32 33 29 25 29 25 21 26 29 28 28 31 30 29 27 26 27 28 29 29 30 29 30 30 29 29 27
33 30 26 26 25 25 24 26 29 33 33 33 35 33 33 35 32 31 27 28 28 22 19 20 30 33 34 31 31 29 31 32 32 34 33 32 30 30 30 29 29 27 26 27
31 31 26 25 28 30 32 32 33 34 36 35 34 33 34 32 28 29 27 25 21 20 20 31 31 31 33 32 34 34 33 34 34 33 31 30 29 29 29 30 30 27 26 26
31 28 27 29 28 30 31 32 33 35 36 35 35 30 30 24 25 22 23 16 14 28 29 31 30 32 34 35 36 36 36 35 34 32 31 30 29 29 29 29 28 27 26 25
29 29 30 31 30 31 32 33 34 36 35 32 28 20 19 24 20 17 20 25 30 30 31 32 32 32 32 32 32 32 34 34 33 32 32 31 31 28 27 26 27 27 27 25
Wind_Speed
28 28 27 26 23 18 12 5 4 11 14 14 15 22 20 9 7 7 6 5 5 6 7 9 14 13 14 7 6 12 12 7 13 21 21 22 21 22 21 16 21 18 10 11
28 29 31 29 27 25 15 5 4 5 14 14 19 18 24 18 10 12 10 8 7 6 6 4 6 10 13 11 8 4 8 6 14 15 19 25 21 18 17 21 21 27 18 9
28 31 31 33 31 31 17 7 6 6 9 17 18 20 23 23 9 16 14 8 9 7 7 8 4 8 9 6 9 8 5 13 17 20 18 20 22 23 23 19 12 14 16 23
24 31 35 35 33 33 14 9 8 10 9 15 22 21 15 23 15 13 12 13 13 10 6 11 17 16 17 13 11 13 11 21 20 24 24 23 25 27 27 27 25 20 23 25
25 25 34 35 35 30 17 9 6 12 13 21 22 19 13 17 20 12 17 15 11 13 17 12 7 11 16 14 8 12 15 25 21 29 21 24 29 27 26 29 29 30 28 29
27 24 31 39 39 27 14 16 14 4 11 16 20 20 20 14 10 12 13 8 13 9 8 9 9 9 11 11 13 16 20 18 15 27 19 24 27 19 23 29 27 27 28 25
24 28 30 39 37 35 12 14 10 11 11 16 20 20 20 16 13 17 7 11 10 9 5 5 10 13 16 18 22 22 24 21 15 23 20 27 14 20 25 27 27 21 18 16
25 29 29 44 40 39 19 13 14 9 13 16 17 20 11 16 15 14 14 10 9 1 6 3 10 15 20 28 30 30 26 22 12 13 19 23 29 26 24 8 14 26 8 6
26 29 31 35 37 39 22 11 9 6 6 13 13 14 16 15 14 15 17 14 8 9 5 3 9 9 14 12 6 25 26 25 23 15 10 13 12 7 20 3 12 8 9 7
23 34 36 44 41 34 21 6 8 7 5 3 4 10 11 4 10 10 12 15 15 16 8 11 14 20 21 23 25 16 16 22 24 20 15 14 18 13 15 8 1 5 4 2
22 24 20 38 36 31 28 9 6 6 4 5 7 5 9 8 8 12 3 4 8 3 10 4 11 13 14 15 21 21 10 14 13 13 13 16 12 7 3 4 2 4 1 5
25 40 40 38 35 32 30 11 6 8 4 3 7 10 11 11 8 3 5 5 2 3 3 5 6 6 6 12 7 6 8 14 13 12 6 13 10 5 6 1 2 3 2 4
34 38 39 39 34 32 29 7 10 5 3 4 8 12 15 13 15 11 8 9 6 6 6 4 3 6 9 8 12 16 10 18 3 11 11 20 15 11 1 1 1 5 5 8
34 34 34 34 33 31 22 9 9 7 3 5 8 11 18 17 17 18 16 17 14 10 5 3 6 6 7 6 9 7 9 2 9 13 16 7 3 6 4 3 1 4 4 7
36 35 34 31 29 29 18 12 11 11 6 3 6 8 13 14 15 17 17 16 15 13 4 7 7 7 12 16 18 16 16 12 8 6 2 4 3 4 6 9 7 5 5 6
32 32 31 29 26 26 9 3 8 11 6 0 4 6 13 16 19 19 18 17 14 12 5 6 5 13 11 7 8 7 11 10 12 7 5 5 5 6 5 7 6 6 6 7
30 29 28 26 25 18 7 3 2 17 7 2 4 6 5 16 14 13 12 13 6 8 6 8 7 12 6 5 15 15 19 9 1 5 7 4 6 4 6 7 8 7 7 9
27 25 24 25 20 11 2 3 11 15 7 5 3 6 5 4 4 5 2 3 3 6 5 3 5 5 7 9 15 18 21 18 6 6 5 3 6 9 9 10 10 10 10 10
29 29 27 9 4 5 7 8 17 5 1 4 5 4 3 3 3 2 2 4 7 6 9 7 8 7 10 13 16 17 18 10 7 9 6 5 7 9 10 9 9 10 10 10
30 11 4 4 6 18 21 5 5 5 2 4 5 8 9 8 7 6 3 6 6 6 11 8 7 10 17 18 18 10 6 11 11 11 9 10 10 10 9 9 8 11 11 10
4 4 3 10 23 4 3 5 5 6 4 7 8 14 11 9 6 6 6 3 5 4 7 9 6 6 11 15 13 3 7 10 11 9 7 8 9 9 9 9 7 11 10 9
8 11 8 4 2 2 3 5 5 7 7 11 9 10 15 4 2 5 5 3 3 1 6 2 3 3 3 1 2 7 6 7 6 4 6 7 10 11 10 10 9 10 11 14
5 5 4 4 4 6 7 9 7 7 6 7 8 4 4 4 3 4 5 3 4 0 2 3 1 4 2 4 9 8 8 6 7 8 8 10 12 12 12 12 14 15 13 12
2 3 5 6 5 6 6 3 3 3 2 9 12 6 4 4 6 3 2 1 2 2 4 2 9 6 8 4 9 9 9 10 12 12 14 16 16 14 15 15 13 14 13 11
2 3 4 7 4 2 3 2 2 2 4 10 6 3 3 4 3 4 3 2 4 6 2 3 3 2 5 6 11 11 10 11 11 11 12 13 12 13 12 9 9 12 13 12
2 3 4 5 3 3 1 2 3 3 2 7 5 4 4 4 4 5 6 4 4 2 3 4 2 3 9 9 10 9 8 10 10 11 11 11 11 12 12 10 10 10 11 12
2 2 2 4 5 3 1 2 3 3 4 3 3 4 3 4 4 4 2 2 3 4 4 4 5 5 4 5 6 8 9 10 10 10 11 10 11 13 12 11 8 9 9 11
Wind_Direction
210 196 189 182 175 179 178 205 241 159 173 199 220 229 226 274 235 199 244 278 269 256 261 269 260 269 274 7 306 293 275 290 277 265 280 288 279 276 281 276 274 270 277 273
213 201 187 181 174 175 177 199 233 186 201 215 227 234 233 242 235 220 224 225 226 235 250 282 331 272 284 312 310 345 344 275 265 268 250 242 250 264 283 292 282 275 269 270
218 201 194 179 177 188 208 190 203 211 206 245 242 222 235 224 212 259 238 234 245 222 237 227 229 264 268 251 278 72 341 270 267 275 292 306 297 290 287 271 270 291 280 292
229 209 194 180 179 194 197 202 219 179 203 227 241 253 224 229 214 214 245 236 231 224 222 251 258 258 260 258 242 265 270 264 271 275 283 289 288 288 292 295 286 265 279 291
228 226 190 182 181 192 201 175 205 172 234 209 216 239 239 234 226 200 225 231 234 226 239 203 261 245 237 254 264 257 259 264 260 269 272 271 272 265 261 267 275 278 279 281
236 215 208 184 184 176 201 216 223 225 230 187 206 220 226 237 227 239 222 246 238 251 252 287 310 323 294 263 272 271 270 266 272 271 274 280 269 258 249 257 264 266 268 274
248 225 220 182 182 189 207 201 210 226 239 213 204 208 225 213 229 245 223 240 256 268 353 336 294 274 265 258 254 250 251 260 264 273 281 269 267 267 264 264 270 252 270 281
247 228 221 176 180 194 213 199 204 210 224 221 227 202 209 219 217 230 256 241 235 22 34 297 273 260 252 247 244 237 233 245 257 251 256 276 280 280 292 258 284 300 347 39
240 224 191 176 186 198 204 232 208 196 208 223 220 203 211 214 217 223 226 225 266 271 143 221 249 254 280 260 208 225 219 222 232 253 269 274 303 10 300 253 246 57 37 24
238 216 212 182 190 194 195 208 215 209 212 205 235 215 224 221 260 247 255 242 224 220 204 226 247 253 258 259 265 258 201 206 223 233 251 266 283 140 251 260 7 119 106 326
213 205 178 164 185 193 194 191 197 211 199 226 230 212 227 221 239 237 324 220 196 123 200 207 241 254 259 275 262 260 215 198 212 230 245 262 254 160 233 117 115 109 166 108
206 191 185 182 186 190 189 201 174 226 230 337 337 302 282 279 294 329 249 281 35 67 206 240 295 277 311 293 267 261 216 214 218 213 226 359 352 43 97 84 172 151 113 107
198 185 172 177 181 186 183 163 154 145 98 287 255 241 243 250 257 255 253 270 253 188 211 318 286 273 310 284 275 264 254 267 286 313 252 226 205 243 196 192 237 132 137 145
172 172 169 176 178 176 163 167 136 131 133 238 262 228 231 245 237 238 232 254 282 294 317 253 246 257 288 274 297 285 271 307 250 228 267 329 59 308 164 177 126 134 141 142
157 161 160 158 158 154 160 178 186 170 203 271 275 266 254 235 216 231 231 229 239 252 226 230 227 266 273 262 268 267 281 277 290 279 359 329 99 222 182 168 179 166 153 152
136 139 145 146 145 149 125 161 226 202 217 44 264 279 261 220 222 230 229 217 224 222 204 240 237 246 270 276 281 276 335 316 40 2 91 87 109 113 135 164 168 143 155 157
132 131 134 140 143 146 154 169 24 175 115 114 259 258 238 222 208 210 218 224 198 205 196 218 236 253 271 270 257 271 287 306 44 141 131 139 168 162 157 137 126 127 140 137
123 126 131 124 113 95 168 7 156 135 114 227 247 261 200 159 183 205 20 176 139 184 218 214 217 240 212 248 249 254 259 255 196 195 199 341 164 141 148 136 147 147 143 136
122 119 111 86 92 151 154 152 145 58 166 197 215 234 252 136 128 140 176 182 197 185 209 207 184 207 225 235 251 262 254 217 191 180 178 149 169 160 149 152 155 149 145 151
112 96 97 129 173 130 123 128 145 174 197 247 237 236 245 179 173 191 207 196 211 200 216 171 216 242 234 239 247 258 190 170 150 175 177 187 185 169 163 165 162 151 161 152
88 136 85 104 144 150 132 141 179 185 223 210 223 227 229 205 203 212 211 215 204 232 167 190 214 248 238 227 228 186 182 164 177 203 187 193 179 158 155 147 137 126 135 140
96 101 78 80 132 116 154 191 193 209 225 182 204 218 212 148 181 207 236 264 261 267 158 218 257 102 70 317 125 118 126 138 136 172 158 147 137 142 140 131 123 117 110 110
82 71 115 176 163 195 199 191 195 206 194 188 159 131 116 139 156 213 235 189 220 304 200 235 104 93 73 108 114 116 99 118 123 110 116 117 115 114 126 115 108 105 106 114
84 154 169 221 177 225 222 288 345 355 189 170 139 133 152 155 179 202 221 234 231 226 227 210 105 79 25 93 115 119 95 78 86 78 86 89 91 85 88 106 116 122 125 127
200 203 223 220 250 300 37 353 291 254 269 130 111 117 179 180 147 221 174 188 226 218 230 85 92 346 1 88 97 104 106 94 94 99 104 107 106 104 99 98 107 118 126 130
248 242 266 252 272 239 222 247 251 219 223 164 192 171 180 179 184 191 210 216 222 95 81 96 149 97 40 70 76 97 113 112 109 114 118 116 116 117 115 105 108 121 133 136
249 237 208 285 298 339 118 219 266 214 210 236 213 180 176 161 200 209 241 356 52 77 75 76 55 70 77 87 105 106 104 102 109 111 113 115 121 124 121 114 112 112 112 116